Regional Weather Roundup
Issued by NWS

Home | Current Version | Previous Version | Graphics & Text | Print | Product List | Glossary On
Versions: 1 2 3 4 5 6 7 8 9 10 11 12 13 14 15 16 17 18 19 20 21 22 23 24 25 26 27 28 29 30 31 32 33 34 35 36 37 38 39 40 41 42 43 44 45 46 47 48 49 50
000
ASUS45 KCYS 232310
RWRWY

WYOMING REGIONAL WEATHER ROUNDUP
NATIONAL WEATHER SERVICE CHEYENNE WY
500 PM MDT SAT MAY 23 2015

NOTE:  "FAIR" INDICATES FEW OR NO CLOUDS BELOW 12,000 FEET
WITH NO SIGNIFICANT WEATHER AND/OR OBSTRUCTIONS TO VISIBILITY.

WYZ001-240000-
YELLOWSTONE NATIONAL PARK

CITY           SKY/WX    TMP DP  RH WIND       PRES   REMARKS
LK YELLOWSTONE   N/A     46  38  73 CALM      30.07R
W YELLOWSTONE  NOT AVBL

$$
WYZ002>013-054>058-071-098>099-240000-
NORTHERN WYOMING

CITY           SKY/WX    TMP DP  RH WIND       PRES   REMARKS
JACKSON        CLOUDY    50  43  76 CALM      30.00F
CODY           CLOUDY    48  43  81 NW7       30.02S
GREYBULL       FAIR      62  45  53 NW7       29.92S
WORLAND        FAIR      61  48  62 NW15      29.94R
SHERIDAN       CLOUDY    53  47  79 NE10      30.02S
BUFFALO        CLOUDY    51  48  89 N16G25    30.02F
GILLETTE       CLOUDY    58  46  64 E12       29.99F
HULETT         CLOUDY    55  46  71 E10       30.02F
NEWCASTLE      MOCLDY    63  43  48 SE8       29.98S

$$
WYZ014>020-022>026-101>103-240000-
CENTRAL WYOMING

CITY           SKY/WX    TMP DP  RH WIND       PRES   REMARKS
BIG PINEY      TSTM      43  39  86 S14G24    30.00R
PINEDALE       CLOUDY    46  37  71 S14G20    30.00R
DUBOIS         FAIR      50  36  57 NW8       29.99F
LANDER         PTSUNNY   51  41  68 NW10      29.91S
RIVERTON         N/A    N/A N/A N/A MISG      29.95R THUNDER
CASPER         CLOUDY    54  40  59 SW7       29.92F
DOUGLAS        FAIR      63  46  54 VRB5      29.92F

$$
WYZ021-027>030-104>119-240000-
SOUTHERN WYOMING

CITY           SKY/WX    TMP DP  RH WIND       PRES   REMARKS
EVANSTON       FAIR      46  38  73 W13       29.96F
KEMMERER       FAIR      46  36  66 W8        29.98S
FORT BRIDGER   CLEAR     55  37  50 NW8       29.98F
ROCK SPRINGS   TSTM      49  36  61 W13G21    29.94S
DIXON          FAIR      52  34  49 E10       29.99R
RAWLINS        LGT RAIN  44  40  85 NE5       30.01R
SARATOGA       MOCLDY    45  41  87 NW10      30.00S
LARAMIE        FAIR      51  35  54 SE10      29.94S
CHEYENNE       LGT RAIN  47  44  90 SW16      29.96R FOG
TORRINGTON     CLOUDY    56  51  84 E20G25    29.92S
PINE BLUFFS    RAIN      48  46  93 SE7       29.95R

$$


USA.gov is the U.S. government's official web portal to all federal, state and local government web resources and services.